Aeroporto :
LOGIN :

Iscrizione | Disclaimer

   EN    FR    IT 

 










Sommario :    VFR   VFR Marginale   IFR   IFR Intensivo   IFR Molto Intensivo
Visibilità : 
Base nubi : 
>= 8 km
>= 3000ft
5 / 8 km
1000 / 3000 ft
1500m / 5 km
500 / 1000 ft
800 / 1500m
200 / 500 ft
< 800m
< 200 ft
Simboli :   Temporali  Nebbia  Neve Forte  Precipitazioni Forti  Vento > 20 kt
SIGMETs :   Varie  Temporali  Ghiacco  Turbolenza  Onda orograficha  Ceneri Vulcaniche







- Altitudine del aeroporto : 266 ft
- Codice IATA : NCL
- Carte del aeroporto


EGNT - Newcastle

ULTIMO METAR :
  • 241720Z 11007KT 080V160 9999 FEW040 14/09 Q1015

METARs OBSOLETI :
  • 241650Z 11007KT 070V180 9999 FEW045 14/09 Q1015
  • 241620Z 10008KT 060V170 9999 FEW045 14/09 Q1015
  • 241550Z 10008KT 070V170 9999 FEW045 15/10 Q1015
  • 241520Z 08010KT 9999 SCT045 12/09 Q1015
  • 241450Z 07008KT 050V110 9999 SCT040 13/09 Q1015

TAF TAF EGNT
Valido dal 24 a 18 ore il 25 a 18 ore UTC


241659Z 2418/2518 28005KT 9999 SCT040
PROB30
TEMPO 2503/2507 8000 BKN014
TEMPO 2515/2518 6000 SHRA
ATIS : +44 191 214 3400
Nessun NOTAM noto per questo aeroporto.



MetMap, La meteo Aeronautica in un colpo d'occhio ! - Copyright ORBIFLY Dicembre 2007 - Disclaimer

ORBIFLY MET'MAP TEAM :

Programmazione e sviluppo : Alexandra Zaïnal
Concezione e sviluppo : Baudouin d'Aumeries
Co-Programmazione e sviluppo : Marc-Olivier Méhu
Supporto tecnico e logistico : Manuel Goepfert
Aiuto per la traduzione : Arnaldo La Scala

Contatto : metmap@orbifly.com




FONTI E CREDITI :

   NOAA